GW3650 Weather Reports


time (UTC)temp
C
wind
direction
speed
KPH
gust
KPH
rain 1hr
cm
rain 24hr
cm
rain mn
cm
humidity
%
barometer
mb
20260506013038 12 0 16.1 29.0 0.00 0.00 0.00 87 1032.2
20260506010018 11 0 16.1 27.4 0.00 0.00 0.00 89 1032.1
20260506003038 11 0 9.7 22.5 0.00 0.00 0.00 90 1031.7
20260506000038 10 0 6.4 14.5 0.00 0.00 0.00 91 1031.2
20260505233018 10 0 3.2 14.5 0.00 0.00 0.00 91 1030.9
20260505230018 9 0 4.8 12.9 0.00 0.00 0.00 90 1030.6
20260505223018 9 0 6.4 14.5 0.00 0.00 0.00 89 1030.3
20260505220018 9 0 4.8 14.5 0.00 0.00 0.00 88 1030.1
20260505213018 10 0 6.4 16.1 0.00 0.00 0.00 87 1030.0
20260505210038 10 0 3.2 8.0 0.00 0.00 0.00 86 1030.0
20260505203017 10 0 3.2 9.7 0.00 0.00 0.00 85 1029.7
20260505200017 10 0 4.8 14.5 0.00 0.00 0.00 85 1029.5
20260505193018 10 0 4.8 14.5 0.00 0.00 0.00 86 1029.5
20260505190018 10 0 3.2 9.7 0.00 0.00 0.00 86 1029.2
20260505183017 10 0 3.2 9.7 0.00 0.00 0.00 85 1029.3
20260505180017 10 0 3.2 6.4 0.00 0.00 0.00 84 1029.3
20260505173017 10 0 3.2 9.7 0.00 0.00 0.00 83 1029.4
20260505170018 11 0 3.2 12.9 0.00 0.00 0.00 83 1029.1
20260505163017 10 0 3.2 14.5 0.00 0.00 0.00 83 1029.1
20260505153019 10 0 1.6 4.8 0.00 0.00 0.00 79 1029.1
20260505123017 11 0.0 0.0 0.00 0.00 0.00 75 1027.8
20260505120016 12 0.0 0.0 0.00 0.00 0.00 73 1027.5
20260505113017 13 0.0 0.0 0.00 0.00 0.00 71 1027.2
20260505100036 17 0.0 3.2 0.00 0.00 0.00 59 1027.0
20260505093038 20 158 1.6 8.0 0.00 0.00 0.00 52 1026.9
20260505090016 20 158 4.8 14.5 0.00 0.00 0.00 51 1026.8
20260505083016 21 158 6.4 16.1 0.00 0.00 0.00 51 1026.6
20260505080016 21 158 8.0 17.7 0.00 0.00 0.00 52 1026.6
20260505073017 21 158 4.8 14.5 0.00 0.00 0.00 51 1026.7
20260505070038 21 113 6.4 14.5 0.00 0.00 0.00 49 1026.6
20260505063017 21 113 6.4 16.1 0.00 0.00 0.00 52 1026.5
20260505060017 21 68 4.8 16.1 0.00 0.00 0.00 53 1026.5
20260505053017 21 293 3.2 12.9 0.00 0.00 0.00 54 1026.5
20260505040017 19 113 3.2 12.9 0.00 0.00 0.00 61 1028.1
20260505033019 19 90 4.8 11.3 0.00 0.00 0.00 62 1028.4
20260505030018 17 315 3.2 11.3 0.00 0.00 0.00 68 1028.5
20260505023017 16 270 3.2 9.7 0.00 0.00 0.00 76 1028.6
20260505020018 14 270 4.8 11.3 0.00 0.00 0.00 83 1028.9